New Philadelphia, OH

5:23 PM EDT on May 23, 2018 (GMT -0400)
Clever

Weather History for KPHD - March, 2011

Change the Weather History Date:

Friday, March 25, 2011

  Actual Average Record
Temperature  
Mean Temperature 28 °F 43 °F  
Max Temperature 37 °F 55 °F 76 °F (1988)
Min Temperature 19 °F 32 °F 4 °F (1974)
Degree Days  
Heating Degree Days 38 22  
Month to date heating degree days 656  
Since 1 July heating degree days 4863  
Cooling Degree Days 0 0  
Month to date cooling degree days 0  
Year to date cooling degree days 0  
Moisture  
Dew Point 15 °F    
Average Humidity 59    
Maximum Humidity 85    
Minimum Humidity 40    
Precipitation  
Precipitation 0.00 in 0.10 in 0.70 in (1969)
Month to date precipitation 2.42  
Year to date precipitation 7.38  
Sea Level Pressure  
Sea Level Pressure 30.10 in    
Wind  
Wind Speed 2 mph (NNW)    
Max Wind Speed 10 mph    
Max Gust Speed 31 mph    
Visibility 10 miles    
Events      
T = Trace of Precipitation, MM = Missing Value Source: NWS Daily Summary

Daily Weather History Graph

Daily Weather History Graph

Search for Another Location

Airport or City:

Astronomy

Mar. 25, 2011 Rise Set
Actual Time 7:21 AM EDT 7:42 PM EDT
Civil Twilight 6:54 AM EDT 8:10 PM EDT
Nautical Twilight 6:22 AM EDT 8:42 PM EDT
Astronomical Twilight 5:49 AM EDT 9:15 PM EDT
Moon 1:56 AM EDT (3/25) 11:19 AM EDT (3/25)
Length of Visible Light 13h 16m
Length of Day
12h 21m
Waning Gibbous, 59% of the Moon is Illuminated
Mar 25
Waning Gibbous
Mar 26
Last Quarter
Apr 3
New
Apr 11
First Quarter
Apr 17
Full

Hourly Weather History & Observations

Time (EDT) Temp. Windchill Dew Point Humidity Pressure Visibility Wind Dir Wind Speed Gust Speed Precip Events Conditions
12:53 AM 25.0 °F - 15.1 °F 66% 30.11 in 10.0 mi Calm Calm - N/A   Clear
1:53 AM 23.0 °F - 16.0 °F 74% 30.11 in 10.0 mi Calm Calm - N/A   Clear
2:53 AM 21.9 °F - 16.0 °F 78% 30.11 in 10.0 mi Calm Calm - N/A   Clear
3:53 AM 21.0 °F - 15.1 °F 78% 30.12 in 10.0 mi Calm Calm - N/A   Clear
4:53 AM 19.9 °F - 15.1 °F 81% 30.14 in 10.0 mi Calm Calm - N/A   Clear
5:53 AM 19.0 °F - 15.1 °F 85% 30.13 in 10.0 mi Calm Calm - N/A   Clear
7:53 AM 19.9 °F - 15.1 °F 81% 30.13 in 9.0 mi Calm Calm - N/A   Clear
8:53 AM 23.0 °F - 17.1 °F 78% 30.13 in 10.0 mi Calm Calm - N/A   Clear
9:53 AM 26.1 °F - 14.0 °F 60% 30.12 in 10.0 mi Calm Calm - N/A   Clear
10:53 AM 28.0 °F - 12.0 °F 51% 30.13 in 10.0 mi Calm Calm - N/A   Clear
11:43 AM 30.2 °F 21.3 °F 12.2 °F 47% 30.08 in 10.0 mi SW 10.4 mph 31.1 mph N/A   Squalls
11:53 AM 30.0 °F - 10.0 °F 43% 30.12 in 10.0 mi Calm Calm - N/A   Scattered Clouds
12:53 PM 34.0 °F 28.8 °F 12.0 °F 40% 30.09 in 10.0 mi NW 5.8 mph - N/A   Clear
1:53 PM 34.0 °F 28.8 °F 12.0 °F 40% 30.07 in 10.0 mi NNW 5.8 mph - N/A   Mostly Cloudy
2:53 PM 34.0 °F 28.8 °F 14.0 °F 44% 30.08 in 10.0 mi North 5.8 mph - N/A   Mostly Cloudy
3:53 PM 36.0 °F 29.0 °F 16.0 °F 44% 30.07 in 10.0 mi North 9.2 mph - N/A   Overcast
4:53 PM 36.0 °F 29.6 °F 18.0 °F 48% 30.05 in 10.0 mi NW 8.1 mph - N/A   Overcast
5:53 PM 35.1 °F 30.1 °F 18.0 °F 50% 30.05 in 10.0 mi NNW 5.8 mph - N/A   Overcast
6:53 PM 34.0 °F 26.0 °F 19.0 °F 54% 30.06 in 10.0 mi NNW 10.4 mph - N/A   Overcast
7:53 PM 33.1 °F 27.7 °F 19.0 °F 56% 30.07 in 10.0 mi NNW 5.8 mph - N/A   Overcast
8:53 PM 33.1 °F 24.9 °F 19.9 °F 59% 30.09 in 10.0 mi North 10.4 mph - N/A   Overcast
9:53 PM 30.9 °F 23.5 °F 15.1 °F 52% 30.11 in 10.0 mi North 8.1 mph - N/A   Overcast
10:53 PM 28.9 °F 22.8 °F 9.0 °F 43% 30.11 in 10.0 mi NNE 5.8 mph - N/A   Mostly Cloudy